CAPE
222 9 0 0 0 0 271 117 26 191 305 308 263 660 551 966 1026 1074 697 720 961 1287 1087 1048 873 938 791 1204 535 915 562 18 1 0 0 855 829 1037 1335 1546 1733 1831 1887 1806 1982 2129 2098 2432 2774 2846 2899 2877 2871 2998 3088 3222 3252 3236 3090 2908 3076 3167 3157 3077 3084 3028 3151 3182 3087 3067 2937 2777 2813 2706 2632 2555 2512 2459 2395 2413 2217 2645 2957 2830 2762 2693 2529 2941 2864 2814 2692 2728 2652 2587 2627 2634 2667
74 0 0 61 87 0 273 524 127 184 388 277 303 773 1019 1103 726 742 829 784 1298 764 793 1055 765 695 1008 962 775 446 539 764 1048 827 666 754 898 1210 1628 1685 1753 1878 1890 1944 2064 1890 2115 2670 2964 3115 2984 2889 3031 3144 3253 3268 3349 3163 2991 3011 2978 2960 2976 2993 3023 3081 2965 2862 2951 2987 2947 2847 2701 2562 2492 2398 2412 2360 2468 2588 2454 2306 2421 2549 2677 2814 2728 2838 2727 2770 2748 2826 2796 2763 2826 2873 2825
15 0 0 21 80 363 290 554 64 194 239 154 167 759 977 832 878 491 996 1008 1023 757 948 952 1038 794 887 904 672 696 225 803 697 752 767 897 1095 1429 1597 1604 1749 1867 1997 2060 2190 2331 2358 2725 3006 3129 2879 2751 3087 3258 3253 3295 3259 3064 3064 2992 2840 2863 2890 2912 2920 2822 2783 2843 2925 2925 2822 2782 2718 2647 2482 2431 2491 2412 2338 2322 2684 2761 2683 2664 2643 2729 2710 2740 2698 2866 2738 2811 2878 2754 2708 2662 2733
0 0 5 56 324 582 331 158 197 172 197 218 367 830 898 778 421 737 874 1129 930 796 791 568 750 430 1222 769 527 544 440 699 806 699 792 974 1049 1463 1541 1699 1970 1934 2054 2148 2302 2484 2550 2718 3173 3197 2744 3069 3164 3258 3269 3300 3078 2811 2851 2906 2706 2742 2732 2747 2858 2943 2930 2912 2765 2551 2623 2969 2902 2631 2648 2633 2653 2679 2593 2623 2675 2608 2615 2514 2650 2658 2732 2624 2566 2560 2626 2809 2656 2511 2503 2636 2720
271 928 357 140 478 289 399 322 304 173 132 225 253 764 991 616 601 686 1228 632 1109 797 656 788 744 656 693 562 337 518 682 770 780 924 851 1036 1344 1480 1556 1715 1830 1984 2074 2209 2411 2536 2711 3155 3146 3069 2778 3135 3080 3076 3011 2994 2826 2778 2798 2878 2719 2791 2814 3008 2891 2875 2933 2879 2698 2584 2430 2716 2737 2661 2555 2537 2673 2595 2654 2678 2599 2436 2294 2545 2615 2711 2834 2893 2736 2751 2809 2936 2631 2534 2553 2728 2764
803 488 1292 403 377 592 282 117 326 261 383 454 581 1041 951 764 1022 1124 1063 710 636 912 1087 860 738 516 485 746 648 624 594 749 880 984 1037 1200 1419 1450 1642 1826 1807 1947 2145 2271 2403 2554 2807 3206 3085 2906 3126 3055 3061 2958 2911 2821 2853 2760 2737 2657 2690 2761 2924 3065 2911 2870 2750 2915 2862 2311 2590 2782 2853 2706 2634 2816 2810 2546 2504 2475 2424 2426 2407 2510 2711 2659 2631 2811 2813 2806 2814 2542 2515 2517 2514 2691 2801
543 705 823 212 719 315 348 173 280 389 740 463 1170 1362 1156 925 924 782 724 388 1108 688 686 1109 439 500 540 379 377 489 790 854 1000 968 1087 1274 1356 1518 1592 1590 1677 1898 2106 2205 2382 2631 2750 2862 2917 3058 2955 2937 2955 2885 2922 2877 2798 2796 2839 2800 2940 3084 2877 2547 2738 2467 3021 2828 2774 2576 2514 2422 2524 2749 2754 2642 2750 2639 2604 2584 2382 2336 2446 2442 2507 2520 2515 2748 2748 2916 2900 2630 2505 2494 2410 2354 2460
1103 863 737 46 290 368 253 347 293 360 571 1223 1276 1522 1513 1219 1072 622 1006 808 739 840 419 387 808 416 209 376 637 593 697 790 872 1047 1240 1306 1394 1466 1317 1326 1522 1811 1963 2128 2455 2633 2829 2806 2892 3016 2947 2870 2801 2866 2886 2924 3012 2783 2813 2902 3001 3104 2709 2541 2454 2562 3013 2833 2778 2686 2690 2632 2642 2648 2768 2669 2567 2431 2319 2528 2607 2584 2570 2482 2389 2552 2681 2596 2601 2851 2801 2672 2715 2662 2597 2542 2480
541 594 418 260 115 320 172 142 485 785 718 1030 1171 1664 1723 1444 1661 926 978 869 616 870 151 296 505 467 428 437 550 664 746 759 1011 1300 1274 1331 1317 1119 1062 1203 1465 1639 1762 2034 2392 2688 2685 2851 2929 2956 2843 2875 2723 2789 2654 2669 2680 2716 2816 2859 3110 2954 2827 2670 2738 2419 2585 2765 2774 2671 2438 2607 2666 2720 2613 2640 2561 2656 2451 2430 2578 2532 2633 2465 2381 2376 2515 2622 2645 2858 2827 2685 2505 2443 2403 2413 2447
391 1127 409 269 345 32 444 472 472 756 962 1301 1516 1812 1616 1286 808 1463 1269 997 1004 318 463 274 373 457 511 617 680 692 686 853 1012 1106 1203 1185 1028 942 1009 1203 1348 1406 1508 1794 2242 2527 2696 2800 2843 2853 2800 2705 2703 2754 2778 2917 2732 2733 2818 2928 2951 2576 2858 2819 2464 2717 2710 2654 2578 2570 2669 2730 2696 2714 2609 2677 2648 2384 2318 2516 2615 2540 2573 2589 2516 2360 2439 2536 2664 2735 2672 2790 2793 2722 2567 2430 2551
542 1142 1439 241 337 58 220 109 547 725 933 1054 1481 1850 1914 1462 1184 905 1122 1180 348 349 348 452 473 520 557 641 805 710 691 815 914 1003 1002 964 865 946 1270 1247 1185 1291 1612 2050 2413 2509 2618 2616 2978 2816 2769 2677 2686 2669 2784 2585 2951 2958 2982 2872 2827 2700 2901 2854 2784 2455 2749 2749 2376 2479 2370 2328 2675 2551 2759 2543 2442 2514 2384 2344 2629 2508 2578 2389 2209 2299 2506 2544 2778 2804 2649 2505 2533 2585 2610 2635 2684
686 3 737 158 312 92 376 449 688 685 868 1296 1538 1771 1888 1466 938 872 593 528 352 352 360 468 485 529 594 683 727 735 694 794 810 804 857 761 824 1294 1304 1278 1457 1751 2088 2348 2443 2469 2470 2671 2767 2864 2781 2686 2595 2608 2643 2823 3035 2801 2691 2750 2798 2766 2665 2712 2770 2408 2779 2694 2518 2551 2384 2598 2712 2571 2669 2705 2506 2452 2416 2439 2518 2517 2503 2375 2351 2390 2456 2572 2357 2744 2568 2593 2652 2544 2171 2246 2260
528 597 145 280 418 39 69 878 947 711 1002 1164 1117 1546 1716 1148 1578 1490 869 862 658 333 497 596 476 605 623 681 689 754 769 671 613 694 682 680 1060 1350 1522 1717 1925 2155 2248 2378 2377 2411 2474 2570 2551 2741 2650 2669 2581 2699 2785 2782 2868 2757 2759 2886 2894 2762 2831 2847 2797 2518 2532 2582 2276 2336 2437 2715 2654 2625 2610 2535 2476 2399 2390 2448 2489 2370 2543 2505 2442 2438 2468 2250 2202 2256 2437 2700 2694 2447 2350 2320 2486
348 441 154 299 889 649 773 746 1510 497 607 1072 1573 1811 1511 1496 1075 962 1191 735 476 788 534 347 460 591 655 590 634 779 782 635 599 719 712 852 1342 1580 1688 1804 1927 2064 2250 2324 2370 2398 2407 2423 2450 2432 2425 2624 2502 2531 2644 2870 2837 2809 2780 2768 2916 2924 2910 2899 2497 2547 2731 2576 2454 2552 2576 2417 2630 2626 2537 2430 2412 2458 2464 2377 2411 2406 2477 2396 2344 2369 2403 2542 2672 2661 2822 2614 2519 2507 2296 2678 2781
383 884 253 212 456 1154 1630 710 1438 763 499 893 1311 1447 1251 1380 1538 1207 1118 551 575 658 401 423 522 492 467 550 619 641 660 565 676 686 819 1424 1542 1518 1521 1607 1862 2110 2209 2234 2296 2318 2310 2295 2286 2448 2512 2456 2493 2652 2619 2840 2946 2912 2920 2772 2867 2880 2807 2514 2652 2777 2695 2607 2457 2497 2379 2259 2404 2280 2349 2409 2444 2587 2589 2466 2368 2328 2257 2353 2322 2343 2387 2590 2676 2736 2877 2759 2573 2461 2451 2706 2724
574 651 503 808 40 694 604 798 1432 1282 768 1574 1592 1579 1796 1511 1400 1145 738 939 800 1031 500 486 351 824 476 408 503 635 601 605 607 645 1160 1368 1375 1359 1462 1733 1916 2018 2126 2185 2245 2263 2225 2261 2303 2323 2362 2419 2524 2534 2528 2551 2404 2572 2960 2946 2844 2606 2516 2788 2710 2527 2336 2218 2472 2558 2456 2529 2468 2235 2063 2442 2327 2480 2606 2366 2347 2266 2294 2297 2350 2329 2508 2602 2707 2794 2971 2984 2664 2357 2491 2583 2631
697 994 499 645 188 790 1069 880 1393 795 1648 1750 1724 1521 1020 1560 1316 2149 1651 754 1250 1045 574 427 513 503 367 448 574 676 615 548 592 765 1001 1087 1195 1363 1580 1669 1779 1863 1757 2072 2135 2179 2184 2268 2282 2297 2316 2440 2411 2410 2437 2519 2736 2596 2666 2790 2918 2731 2695 2572 2517 2384 1942 2339 2560 2754 2738 2206 2354 2308 2376 2273 2323 2672 2396 2507 2296 2328 2321 2354 2326 2335 2470 2571 2659 2774 2768 2777 2677 2400 2439 2643 2722
598 565 262 314 123 411 376 715 755 868 1137 1190 1048 1667 1321 1387 1438 1774 1579 890 1200 712 540 350 562 369 360 470 671 670 582 570 568 713 818 962 1062 1250 1397 1510 1659 1713 1791 1755 1856 2096 2204 2212 2236 2292 2324 2311 2326 2326 2331 2391 2463 2648 2660 2669 2712 2512 2374 2438 2490 2479 2988 2593 2800 2365 1961 2513 2069 1956 2257 2482 2741 2638 2363 2451 2355 2373 2289 2301 2389 2541 2513 2536 2614 2638 2678 2591 2509 2514 2832 2525 2728
386 393 106 22 248 254 922 971 985 1038 1441 1698 1651 1399 1467 1595 1677 1576 1250 862 1002 603 547 415 586 321 406 500 567 562 524 526 547 638 692 927 914 1031 1208 1390 1488 1579 1646 1602 1844 2028 2121 2128 2169 2214 2200 2194 2258 2248 2256 2314 2360 2456 2464 2417 2518 2617 2636 2936 2454 2561 2288 2279 1760 1888 2202 2058 2123 2514 2536 2728 2960 2417 2556 2383 2391 2328 2200 2236 2318 2438 2458 2568 2574 2660 2809 2811 2874 2803 2019 2205 2078
236 240 338 62 260 660 1577 1143 733 990 1617 1597 1484 1096 1872 1268 1215 853 1758 1412 925 612 399 453 448 298 369 490 433 348 319 399 376 537 732 872 865 985 1156 1258 1350 1456 1481 1569 1827 1957 1993 2031 2071 2092 2079 2095 2145 2194 2256 2241 2311 2330 2258 2298 2297 2285 2379 2340 2179 1901 1884 1739 1880 1943 1890 1940 2038 2222 2596 2500 2349 2455 2260 2376 2285 2257 2387 2424 2456 3127 2560 2594 2693 2859 2926 2676 2447 2300 1901 2127 1901
0 0 0 0 228 596 1054 1651 967 1162 1830 1479 1342 898 1278 1007 932 1214 1124 724 695 537 552 481 346 233 283 333 297 220 298 328 257 280 672 770 785 947 1100 1149 1271 1329 1368 1588 1774 1829 1896 1978 1999 2007 2013 1985 2045 2151 2205 2199 2236 2209 2184 2170 2140 2169 2104 2156 2069 1988 1914 1866 1867 1991 1736 1862 1981 2197 2051 2194 1947 2063 1949 2195 2268 2086 2199 2551 2594 2209 2416 2634 2007 1966 1868 1870 1802 1737 1628 1606 1850
0 0 0 60 469 464 1013 1538 1056 792 1419 1459 1311 1282 1467 979 840 1374 1481 674 456 531 387 448 272 213 215 231 179 180 270 241 205 222 355 566 709 886 962 1098 1170 1251 1352 1584 1651 1747 1836 1922 1971 1973 1932 1899 1941 2109 2122 2211 2202 2137 2095 2039 2044 2068 2068 2120 2083 2072 2044 1995 1857 2053 2046 1755 2080 2022 1805 1838 1970 1943 1750 1874 2027 1952 1849 1915 2142 1843 1856 1806 1882 1811 1883 1702 1621 1806 1637 1630 1678
0 0 0 0 410 736 1003 1342 900 977 1070 1257 1356 1726 1570 1214 915 893 1141 994 1135 607 331 483 274 184 169 200 141 144 178 194 178 195 269 416 612 745 882 967 1083 1208 1473 1541 1596 1713 1770 1853 1911 1928 1822 1811 1866 1995 1968 2172 2079 2055 2017 1966 1979 2004 2099 2057 2050 2040 2053 1927 1853 1849 1605 1781 2048 1795 1792 1866 1824 1785 1747 1808 1953 2092 2021 2151 2456 1680 1845 1919 1867 1915 1893 1854 1520 1760 1726 1555 1682
0 0 0 0 193 1010 1257 566 911 1263 1582 1255 1578 1459 1351 1226 1336 1010 778 855 1044 724 411 396 223 136 115 112 90 55 105 162 166 180 248 364 519 639 785 884 1058 1284 1447 1526 1630 1683 1727 1776 1835 1738 1744 1750 1768 1849 1885 2020 1970 1981 1936 2499 2100 1974 1996 1972 1950 1993 2036 2011 1784 1795 1881 1748 1950 1705 1776 1808 1799 1716 1650 1706 1896 2019 2140 2163 2621 1866 1748 1971 1807 1882 2023 1852 1794 1981 2130 1889 1694
0 0 0 153 260 1444 898 642 774 1150 1416 1182 1103 868 1212 1186 1654 845 1228 1155 717 813 487 360 222 103 98 93 64 10 27 81 137 164 221 274 343 456 706 818 1003 1264 1407 1534 1592 1660 1676 1699 1698 1649 1704 1698 1672 1710 1872 1870 1874 1870 1888 2034 1934 2373 1828 1918 1801 1878 1956 1833 1749 1722 1695 1634 1746 1604 1712 1670 1678 1653 1540 1593 1783 1893 2066 2171 1948 1804 1907 2198 2253 2158 2102 1912 1926 1717 1918 2046 2523
0 0 0 30 652 1069 560 735 702 1106 1354 960 902 1124 1472 1328 736 1225 1260 1338 1207 1156 499 385 395 95 90 90 49 11 1 35 96 123 216 258 309 360 561 700 962 1142 1330 1499 1540 1639 1655 1660 1609 1633 1676 1636 1565 1660 1816 1804 1837 1804 1819 1899 1816 2734 1724 1797 1778 1546 1401 1275 1562 1687 1539 1440 1462 1503 1595 1597 1526 1514 1411 1430 1567 1800 1858 2046 2029 1539 1811 2109 2107 2202 2240 2284 1931 1848 1770 2073 2494
0 0 0 0 544 831 568 669 766 900 1270 844 1214 1113 1137 800 1153 649 716 963 989 748 613 467 519 120 98 84 55 22 0 4 32 52 223 278 312 312 374 623 835 1009 1198 1386 1490 1534 1677 1661 1613 1609 1596 1575 1499 1670 1757 1780 1825 1718 1707 1783 1723 2350 1774 1658 1641 1548 1282 1453 1248 1464 1418 1337 1247 1374 1494 1514 1399 1374 1367 1380 1468 1509 1418 1812 2260 2235 2125 1847 1922 1861 2078 2117 1918 1950 1757 1897 2387
0 0 0 0 0 783 647 634 750 814 1203 1123 1007 750 778 690 1136 823 629 801 697 692 564 554 463 121 92 55 65 42 1 0 0 44 189 317 329 312 352 575 717 847 1046 1258 1376 1448 1698 1670 1646 1619 1496 1463 1488 1672 1867 1763 1791 1675 1610 1656 1639 2164 1843 1567 1470 1462 1199 1427 1305 1104 943 1023 1698 1354 1409 1473 1459 1340 1121 1287 1367 1400 1618 2332 2370 2023 2024 2051 2078 2292 2104 2072 1912 2146 1978 1953 1950
0 0 0 0 0 751 827 742 726 1230 1252 1151 930 791 823 710 929 650 523 569 611 588 542 523 463 83 35 26 69 51 21 16 5 19 112 303 343 364 356 530 651 762 904 1097 1238 1469 1690 1706 1670 1640 1495 1412 1477 1662 1755 1712 1771 1663 1545 1532 1628 2012 1822 1499 1420 1379 490 724 897 899 750 917 1613 1211 1269 1120 1771 1061 1326 1530 1741 1982 2265 2356 2254 2188 2117 2010 1956 2050 2076 2115 2030 2054 2040 1983 2045
0 0 0 0 0 121 883 802 832 1190 1352 1214 532 589 722 940 824 540 463 521 494 467 477 542 428 74 33 34 65 77 45 49 42 2 60 217 290 351 346 480 583 660 757 947 1165 1525 1592 1598 1617 1640 1554 1433 1394 1575 1684 1639 1724 1616 1438 1474 1604 1852 1843 1368 1246 1126 661 487 684 602 817 1040 1156 940 980 1374 1758 1456 1686 1877 1956 2028 2171 2239 2222 2193 2039 1694 1619 1722 2018 1643 2029 2316 1648 1669 1991
0 0 0 0 0 0 784 826 762 854 1282 678 332 340 534 754 533 530 528 558 515 469 560 490 423 106 46 48 88 94 68 67 92 13 9 117 196 272 338 400 533 594 636 816 1124 1453 1505 1402 1474 1510 1555 1397 1364 1268 1544 1492 1576 1357 1320 1344 1518 1650 1582 1294 1058 1057 538 379 845 547 750 1103 957 956 1195 1543 1771 1737 1869 1939 1810 1646 1653 2499 2289 1985 1416 1526 1375 1738 1935 1476 1540 1981 2012 2007 1894
0 0 0 0 0 0 784 744 598 600 867 625 256 256 403 551 578 572 625 576 570 464 482 502 366 152 81 81 141 133 125 123 127 64 3 13 57 180 290 354 556 560 561 678 1067 1261 1234 1275 1297 1190 1395 1317 1405 1117 1346 1373 1470 1345 1230 1519 1277 1400 1320 1083 929 512 680 845 500 439 624 1022 840 898 1261 1524 1625 1778 1893 1915 1607 1983 2174 2486 2139 1929 1280 1184 1521 1245 1548 1414 1306 1385 1798 1667 1946
0 0 0 0 0 0 0 711 610 556 701 800 536 275 390 489 625 700 664 720 556 487 469 423 343 229 116 112 166 186 163 181 164 85 22 0 1 90 186 341 549 566 538 274 941 1036 958 1136 1100 976 1220 1220 1270 1163 1200 1198 1324 1394 1259 1484 1340 1191 966 699 863 749 1029 943 427 372 766 1065 757 824 1298 1589 1489 1804 1902 2142 2100 2295 2556 2520 1991 1588 1739 1571 1735 1550 1398 1492 1151 1060 1429 1492 1221
0 0 0 0 0 0 0 82 666 615 752 751 697 344 370 466 671 705 758 666 502 494 448 402 354 329 205 135 183 230 189 208 199 105 49 2 0 18 75 424 363 429 514 434 747 807 771 901 946 891 1166 1210 1116 926 935 997 1092 1152 1082 1298 1645 1293 1292 1104 940 1207 1178 1010 1055 923 872 1264 958 890 1408 1666 2096 2348 2037 2033 2317 2226 2849 2692 2241 1806 1818 2048 1787 1792 1349 1746 1237 1007 908 1138 1182
0 0 0 0 0 0 0 0 458 764 758 689 649 394 259 468 690 751 742 630 549 523 494 404 357 339 332 182 187 239 188 216 200 114 47 6 0 2 17 224 200 296 311 182 353 286 555 842 932 954 1131 1188 1081 908 914 955 1061 1100 1083 1197 1434 1370 1545 1505 1359 1365 1217 1381 1526 1180 1009 1375 1333 1197 1586 1897 2471 3026 2319 2318 2392 2678 2969 2703 2510 2155 2097 2142 1856 1820 1244 1230 1512 1144 934 1069 1067
0 0 0 0 0 0 0 0 305 741 684 598 503 330 318 562 721 810 871 753 610 577 508 406 361 349 365 344 185 182 159 202 166 107 53 8 0 0 1 88 98 214 230 97 159 217 532 619 875 942 1076 1069 1103 1066 910 701 1022 1058 982 1038 1362 1295 1685 1632 1506 1602 1631 1606 1675 1533 1436 1781 1766 1919 1931 2197 2600 2829 2471 2798 2764 3006 2898 3081 2671 2218 2283 2151 2187 1872 1479 1262 1432 2168 2402 1580 1316
0 0 0 0 0 0 0 0 234 637 503 448 422 315 469 621 710 854 809 798 699 613 520 464 409 434 415 372 324 147 116 186 128 98 73 12 0 0 2 20 47 124 104 19 24 297 426 551 733 844 1014 1148 1022 989 825 569 585 863 420 653 1187 1149 1552 1770 1696 1798 1852 1848 2122 2044 2180 2452 2557 2466 2349 2401 2500 3192 2622 2799 3029 3021 3036 2982 3049 2551 2432 1803 1860 1833 1893 2240 1789 2440 2787 2310 2101
0 0 0 0 0 0 0 0 125 525 360 435 416 365 529 673 624 808 706 766 786 619 546 490 445 462 435 398 363 345 94 87 55 66 72 2 0 0 3 6 42 39 22 4 7 320 308 519 624 555 916 1101 952 637 856 414 508 622 343 651 1005 1109 1212 1597 1714 1889 1933 1995 2275 2377 2603 2807 2835 2470 2376 2444 2718 2667 2622 2768 3012 2949 3038 2696 2755 2901 2520 2978 2958 2923 3164 3024 3282 3166 1807 897 596
0 0 0 0 0 0 0 0 8 441 272 284 404 402 535 631 580 797 756 753 747 691 567 493 494 486 457 427 410 390 122 65 37 55 71 14 1 0 2 8 6 9 3 0 10 201 230 459 495 414 896 1008 939 497 903 541 600 198 118 592 803 830 895 1116 1453 1850 1908 2016 2276 2390 2610 2887 2837 2374 2367 2528 2706 2362 2240 2725 2901 2788 2465 2806 2720 2810 3317 2773 2558 2352 2948 2375 2033 2039 2992 1092 357
0 0 0 0 0 0 0 0 0 0 406 296 373 341 448 601 567 803 854 780 768 708 587 530 562 494 510 466 429 440 371 219 67 30 40 31 20 0 1 6 1 0 0 0 2 87 207 467 334 288 815 880 449 272 582 32 194 98 1 57 617 616 633 624 1219 1685 1856 1952 2138 2270 2425 2759 2680 2587 2429 2433 2531 2339 2021 2487 2834 2570 2220 3002 2040 2813 2970 2552 1968 2150 2884 3486 2678 1096 1279 466 1484
0 0 0 0 0 0 0 0 0 0 2 158 315 367 419 520 604 704 808 795 812 742 613 543 614 552 554 529 506 478 480 406 124 44 38 45 34 8 0 1 0 0 0 0 0 21 206 302 232 240 745 798 345 464 496 42 662 184 1 0 0 1 2 30 918 1414 1868 1875 1904 2125 2263 2541 2635 2710 2568 2355 2308 2184 1800 2030 2448 2118 1815 2882 2373 2698 2981 2503 1922 2183 2729 2476 2250 1397 1619 1408 829
0 0 0 0 0 0 0 0 0 0 0 270 332 313 204 520 650 698 741 752 751 880 877 734 635 696 624 613 591 539 530 513 294 98 64 61 48 22 0 0 3 3 0 0 0 5 148 216 188 197 699 698 363 407 408 203 538 112 1 0 0 0 0 51 552 1169 1746 1772 1766 1930 2055 2329 2638 2684 2635 2517 2516 2166 1813 1807 2219 2094 2086 2129 2618 2435 2503 3027 2768 2124 2414 2567 2180 2436 2062 2504 495
0 0 0 0 0 0 0 0 0 0 0 263 322 221 294 493 631 694 723 683 623 805 895 828 676 762 764 713 653 610 578 560 459 179 97 94 50 29 0 0 0 1 0 0 0 0 104 165 165 196 384 242 410 530 511 327 294 186 5 0 0 0 0 0 307 1036 1518 1631 1585 1670 1873 2081 2400 2531 2524 2606 2748 2612 2057 1908 2250 2232 2336 1952 2969 2373 2378 2911 2867 2320 2335 2563 2550 2923 2761 2799 358
0 0 0 0 0 0 0 0 0 0 0 149 265 129 330 318 304 410 547 657 721 781 831 933 834 775 884 804 645 641 626 602 582 401 167 131 67 49 203 10 0 1 0 0 0 0 67 133 136 186 423 418 446 678 583 291 165 279 38 22 0 0 0 0 34 1070 1321 1425 1351 1419 1627 1896 2128 2320 2358 2452 2646 2784 2522 2095 2184 2336 2584 2288 2712 2406 2274 2663 2936 2524 2526 2636 2632 3183 3039 2445 926
0 0 0 0 0 0 0 0 0 0 0 0 42 104 60 242 498 445 464 571 648 690 753 942 944 885 816 880 690 693 676 662 632 571 385 196 124 63 281 280 69 10 0 0 0 0 43 121 175 183 437 464 368 816 678 383 182 273 67 17 4 0 0 0 0 620 1265 1240 1124 1109 1392 1720 1799 2155 2243 2337 2393 2546 2752 2317 2300 2370 2701 2568 3156 2495 2312 2590 2827 2681 2274 2482 2684 3608 2792 2727 1941
0 0 0 0 0 0 0 0 0 0 0 0 0 0 0 0 163 342 497 532 576 595 558 840 992 920 849 792 742 713 706 687 644 616 536 374 214 103 63 105 0 17 0 16 0 0 54 136 194 189 383 544 339 809 785 523 181 322 92 1 4 0 0 0 0 10 986 1061 976 810 1007 1486 1587 1696 1931 2080 2254 2343 2605 2589 2486 2502 2607 2637 2920 2482 2418 2689 2757 2646 2204 2119 2341 3638 3082 3641 2836
0 0 0 0 0 0 0 0 0 0 0 0 0 0 0 0 4 108 422 540 569 542 537 734 970 974 912 831 778 711 767 714 681 661 640 516 442 396 338 30 1 120 174 24 0 0 18 141 180 166 301 574 483 632 806 588 280 136 121 6 7 0 0 0 0 18 62 879 722 704 696 1065 1386 1454 1622 1898 2040 2098 2463 2640 2559 2613 2526 2608 2790 2567 2562 2609 2670 2666 2248 2090 2921 3280 3283 2874 3475
0 0 0 0 0 0 0 0 0 0 0 0 0 0 0 0 0 29 398 540 558 558 530 594 990 1026 929 877 802 743 723 737 713 710 700 615 485 466 432 404 174 445 420 97 1 2 10 157 174 164 190 464 627 477 773 713 440 120 99 6 3 1 18 0 0 114 14 94 501 422 512 328 808 1085 1190 1681 1831 1957 2337 2548 2617 2643 2653 2572 2547 2498 2524 2519 2508 2534 2194 2457 2997 3091 2953 2666 2450
0 0 0 0 0 0 0 0 0 0 0 0 0 0 0 0 0 55 197 470 539 535 514 528 812 1142 1042 904 836 770 734 697 716 737 723 635 545 511 482 470 460 457 443 28 10 19 0 146 184 186 174 255 695 494 570 735 641 243 104 7 0 8 100 12 0 40 63 29 67 375 413 327 295 296 161 754 1438 1934 2196 2348 2452 2457 2502 2567 2571 2621 2549 2484 2428 2249 2326 2702 2886 2854 2796 2395 2278
0 0 0 0 0 0 0 0 0 0 0 0 0 0 0 0 0 0 211 422 498 510 499 502 555 1010 1123 972 820 774 752 741 715 732 745 674 527 492 474 474 486 484 455 431 408 327 4 65 226 206 247 191 474 673 462 476 593 409 181 14 0 47 80 150 0 2 124 118 53 315 634 454 344 318 244 348 1195 1808 2097 2219 2318 2398 2363 2384 2363 2400 2373 2241 2252 2151 2470 2742 2831 2676 2658 2489 2409
0 0 0 0 0 0 0 0 0 0 0 0 0 0 0 0 0 0 46 262 386 458 464 476 504 628 996 1060 916 803 755 741 742 680 828 830 632 555 537 486 467 475 462 450 458 420 346 15 240 280 333 320 352 690 521 372 402 423 309 55 0 0 8 258 2 0 23 185 216 282 596 668 624 324 254 251 1141 1686 2077 2148 2210 2304 2376 2360 2356 2410 2242 2381 2240 2196 2483 2704 2742 2595 2498 2623 2628
0 0 0 0 0 0 0 0 0 0 0 0 0 0 0 0 0 0 0 98 203 261 440 406 401 504 827 921 920 860 817 801 801 784 870 913 722 659 596 552 536 511 487 474 485 450 380 114 138 289 331 503 470 684 608 376 292 324 352 157 5 4 67 188 161 47 0 64 164 398 604 736 671 403 257 282 807 1612 1993 2193 2222 2212 2336 2357 2327 2418 2110 2344 2603 2351 2449 2509 2518 2586 2464 2545 2662
0 0 0 0 0 0 0 0 0 0 0 0 0 0 0 0 0 0 0 0 59 298 360 364 355 705 838 912 876 875 854 844 775 881 912 948 878 728 667 619 593 561 546 522 514 481 428 338 176 279 328 534 704 807 720 561 336 279 310 248 77 13 5 53 223 157 55 13 78 213 696 804 712 632 589 488 487 1427 1735 2126 2255 2218 2283 2461 2370 2352 2121 2177 2513 2486 2498 2373 2232 2426 2490 2481 2594
0 0 0 0 0 0 0 0 0 0 0 0 0 0 0 0 0 0 0 0 6 183 313 372 338 740 917 880 901 883 889 828 785 860 948 978 975 874 760 704 654 628 617 586 559 521 497 461 408 273 415 493 748 965 895 777 578 402 356 330 167 59 45 10 116 248 194 90 20 55 314 898 850 716 624 743 733 908 1597 2416 2108 2204 2204 2481 2397 2328 2348 2395 2383 2442 2588 2548 2333 2429 2472 2506 2558
0 0 0 0 0 0 0 0 0 0 0 0 0 0 0 0 0 0 0 0 3 32 273 227 332 676 943 906 850 878 854 740 741 891 911 1026 1037 970 900 840 777 726 680 633 602 555 545 518 485 446 444 566 672 1007 1090 1006 831 666 523 472 327 145 114 78 17 162 332 273 92 41 58 569 933 826 726 885 1015 945 1061 1829 2052 2094 2126 2322 2392 2256 2355 2462 2467 2364 2463 2527 2552 2549 2557 2447 2298
0 0 0 0 0 0 0 0 0 0 0 0 0 0 0 0 0 0 0 0 3 26 25 274 259 577 896 940 873 824 791 770 790 933 1002 922 935 997 990 934 845 778 714 656 615 578 576 577 713 555 520 611 728 920 1210 1141 1012 877 750 639 505 314 206 176 92 59 205 387 253 134 66 100 689 929 808 861 1060 1124 1126 1353 1932 2041 2091 2134 2430 2349 2357 2410 2546 2430 2476 2492 2520 2630 2509 2585 2729
0 0 0 0 0 0 0 0 0 0 0 0 0 0 0 25 139 99 81 49 39 36 24 91 294 489 763 895 925 864 818 819 797 880 1047 1067 999 956 968 942 888 799 754 703 647 635 622 606 887 877 615 575 804 887 1136 1224 1132 1019 914 804 713 521 322 245 215 107 129 309 401 341 188 107 305 856 936 823 996 1163 1330 1340 1662 1928 2013 2106 2230 2467 2469 2436 2585 2499 2464 2555 2518 2632 2601 2471 2656
0 0 1 0 0 0 0 0 0 0 0 0 0 0 0 10 124 170 142 36 35 9 0 11 151 439 679 819 856 879 880 850 810 802 968 1111 1100 1042 998 973 952 882 808 734 693 671 918 960 1031 1063 952 694 886 918 1078 1267 1244 1139 1018 914 832 735 557 354 296 201 175 177 460 648 477 321 292 593 1001 956 715 781 1062 1400 1586 1758 1876 2007 2140 2315 2534 2520 2569 2651 2580 2604 2663 2669 2670 2570 2565
Wind_Speed
8 nan nan nan nan nan 6 5 nan 5 5 2 4 5 11 11 9 8 4 3 6 11 11 12 3 4 5 4 2 3 6 nan nan nan nan 5 7 10 5 6 6 3 4 6 6 6 6 8 7 7 8 8 7 6 5 3 2 3 3 3 4 4 5 5 5 5 7 7 6 5 4 2 2 2 2 1 1 1 2 4 5 6 8 8 8 8 9 8 7 5 4 4 3 3 2 3 3
nan nan nan nan nan nan 6 5 6 3 1 5 11 9 10 7 8 10 5 7 10 8 6 9 6 6 7 5 7 5 8 6 4 4 2 4 6 6 8 7 7 5 5 6 6 6 8 8 5 7 8 8 7 6 5 3 3 3 3 4 4 4 4 4 5 5 6 6 4 3 1 1 1 2 2 2 2 2 3 4 6 6 7 8 8 7 7 7 6 4 3 3 3 2 2 3 2
nan nan nan nan nan 4 5 4 nan 4 7 10 11 10 10 10 10 13 9 8 8 3 7 5 7 7 8 9 1 4 7 3 8 5 3 7 8 6 8 8 6 4 4 6 6 7 8 7 7 8 8 9 7 6 5 3 2 3 4 4 4 4 4 4 4 5 4 4 3 1 1 1 2 2 2 3 3 4 4 5 6 7 7 7 6 6 6 6 5 4 3 2 2 1 1 1 2
nan nan nan nan 4 3 4 4 5 5 8 12 10 11 9 6 4 13 9 11 10 4 5 3 4 6 10 3 4 7 2 3 3 10 6 10 6 8 7 7 5 3 4 6 7 8 9 7 7 8 8 8 7 5 5 4 3 3 4 4 4 4 4 4 3 4 3 2 1 0 1 2 3 3 3 4 5 5 5 5 6 7 7 6 5 5 6 6 5 4 3 2 3 3 3 3 4
6 6 7 3 2 3 3 3 4 4 12 14 11 12 10 7 5 6 8 8 13 6 3 5 6 7 7 6 8 6 6 1 3 2 5 4 8 7 6 6 4 3 4 6 7 8 9 7 8 8 8 7 6 6 5 4 4 4 4 4 4 3 3 3 2 3 3 2 2 3 3 4 4 4 5 6 6 7 7 6 6 6 7 6 4 4 5 5 4 3 2 1 3 4 4 4 5
6 5 6 3 1 1 4 1 5 10 16 17 12 12 8 9 8 5 3 5 9 8 8 7 9 12 6 3 4 4 12 7 6 4 7 6 11 10 6 4 3 2 4 6 8 10 10 8 7 7 7 7 7 7 6 5 4 4 4 4 3 2 2 2 3 3 4 3 3 5 4 5 5 6 7 7 8 9 8 8 8 7 7 6 5 4 5 4 3 3 2 2 3 5 4 5 5
5 3 2 1 1 1 1 1 9 12 16 14 13 11 7 9 5 5 2 1 7 5 6 8 7 4 1 5 6 3 1 6 4 5 4 7 9 8 6 3 2 2 3 7 8 9 9 8 7 8 8 8 8 7 7 6 6 5 4 2 2 2 4 2 3 5 3 3 4 5 7 7 7 8 8 9 9 10 10 9 9 8 6 6 5 4 4 3 3 3 3 2 3 4 4 4 4
7 4 2 nan 2 1 2 1 7 9 16 13 14 10 9 7 6 5 5 5 4 2 9 6 6 3 3 5 5 4 9 3 4 7 10 6 7 7 5 3 1 2 4 6 9 10 8 8 8 8 8 9 9 8 8 7 6 6 5 4 4 4 4 5 6 3 2 3 5 6 8 8 8 9 9 9 10 10 10 9 8 7 6 5 5 4 4 3 3 2 1 1 2 3 3 3 3
6 1 3 2 2 1 2 2 7 11 14 13 13 13 7 9 10 5 4 6 3 6 14 12 12 7 6 7 4 6 3 10 7 10 10 7 6 6 2 1 1 3 4 6 8 9 9 8 7 8 9 9 9 8 7 7 7 7 6 6 5 5 5 5 3 3 4 5 6 7 8 9 9 9 10 10 10 9 9 8 7 6 5 5 4 4 4 3 2 2 2 2 2 2 2 1 2
3 5 4 3 3 nan 3 3 8 11 12 12 9 10 9 8 8 11 5 3 6 3 9 10 7 10 9 7 9 7 8 11 12 9 9 7 6 4 3 1 1 2 4 7 8 9 9 8 8 8 9 9 9 8 7 7 7 7 7 7 7 7 5 4 4 5 5 5 6 7 9 9 10 10 10 9 9 9 8 8 7 6 5 4 3 3 3 2 1 1 2 3 3 2 0 1 1
4 4 4 3 4 nan 3 8 6 9 10 7 9 10 9 10 10 12 14 7 7 5 7 9 8 12 9 4 3 7 14 15 14 12 9 8 5 3 0 0 1 3 4 6 7 8 8 8 9 9 10 9 8 8 7 7 7 6 7 7 6 5 4 4 5 5 5 5 7 8 9 9 10 10 9 9 8 7 8 8 7 5 4 3 3 2 1 1 0 1 2 3 2 2 2 2 2
4 nan 5 5 6 nan 4 6 8 8 9 8 9 11 9 3 4 3 10 6 4 8 11 7 5 12 6 7 7 12 17 15 11 10 8 6 2 2 1 4 2 3 4 6 7 7 8 8 8 9 10 8 8 8 7 7 6 6 6 5 5 5 5 5 5 5 6 6 7 8 9 9 9 10 9 8 8 7 7 7 6 6 5 4 4 3 2 2 2 2 2 2 1 2 3 2 2
4 4 7 6 5 nan nan 7 8 5 9 11 8 11 8 8 10 5 2 8 4 10 6 4 15 6 6 6 8 13 17 14 12 10 6 3 1 1 3 4 2 2 4 6 7 7 7 9 8 9 8 9 8 8 7 7 6 6 6 5 5 5 6 6 6 6 6 6 7 7 8 9 9 9 9 9 8 8 8 8 7 7 6 6 5 4 4 3 2 1 3 2 2 2 3 3 2
2 5 6 5 5 7 8 8 7 4 8 11 6 4 7 11 11 8 4 1 9 3 5 12 9 9 9 9 9 12 13 16 15 11 5 2 2 2 2 4 3 3 4 6 7 7 8 8 9 8 7 8 8 7 8 7 6 6 6 6 6 6 7 7 7 7 7 7 8 8 8 9 9 9 9 9 9 8 8 9 9 9 9 8 7 6 5 5 4 3 3 4 3 3 3 4 4
4 2 1 4 5 6 7 7 7 5 6 11 5 3 6 10 8 7 3 2 7 3 10 3 10 9 13 18 11 14 15 18 14 11 5 3 3 2 1 3 4 5 5 5 6 7 8 8 8 8 9 9 9 10 10 7 8 7 7 7 8 9 7 8 8 8 8 9 8 9 8 8 8 9 9 9 9 9 9 10 10 10 10 9 9 8 7 6 5 5 5 6 5 4 4 6 6
3 4 1 1 nan 3 6 5 5 2 5 6 5 3 8 9 9 6 7 5 9 10 11 5 11 4 16 11 21 17 18 15 13 9 5 4 3 1 0 3 5 5 6 6 6 7 7 7 8 9 9 8 10 10 10 10 9 10 10 10 10 9 9 9 9 9 10 9 9 8 8 8 8 7 8 8 9 9 10 11 11 11 10 9 8 8 7 7 6 5 6 7 7 5 5 7 8
7 6 4 2 4 1 5 6 5 3 2 4 4 4 1 3 7 9 6 5 6 9 5 7 6 7 15 11 17 18 15 13 12 10 6 2 2 2 3 5 7 7 7 6 8 7 6 6 7 9 8 8 9 10 11 11 11 10 10 10 11 10 11 11 11 11 9 8 8 7 6 9 9 9 8 9 9 9 10 11 11 9 8 8 8 8 7 7 7 6 7 8 7 7 8 9 11
7 4 5 2 4 2 5 5 4 2 5 2 1 6 3 3 2 5 3 4 9 6 4 4 5 5 8 14 17 17 14 14 13 11 5 3 3 3 3 5 6 7 7 8 7 7 6 6 7 8 8 8 9 10 11 11 11 9 11 11 11 11 11 10 9 9 7 9 8 8 9 10 9 9 9 9 10 9 10 10 10 8 7 7 7 7 8 8 7 7 8 8 6 8 10 14 15
5 8 8 nan 2 6 1 1 2 4 4 3 4 5 5 2 1 6 4 3 6 4 3 11 3 9 11 16 19 17 15 14 13 11 9 8 5 5 4 5 6 5 7 8 7 6 6 6 7 7 8 8 9 11 11 11 10 12 12 12 13 12 12 11 11 9 9 10 10 9 10 9 9 8 8 9 10 10 10 11 10 9 8 8 8 8 8 8 8 8 10 10 9 10 14 14 13
4 11 7 nan 3 4 2 4 2 1 9 4 1 3 5 2 3 4 5 3 5 4 5 9 10 14 15 16 18 18 16 14 12 12 12 10 9 7 6 6 6 6 6 7 6 6 5 6 7 7 7 8 10 11 10 10 11 12 12 13 13 13 12 11 10 9 10 11 10 9 9 9 9 10 10 11 10 9 11 11 11 10 10 10 9 9 9 9 9 10 11 12 13 13 14 15 13
nan nan nan nan 2 2 2 2 3 3 4 4 3 3 4 2 2 2 1 2 7 3 3 12 17 19 19 19 18 18 18 16 12 11 11 10 9 7 8 7 6 6 6 6 6 5 5 5 6 7 6 8 10 10 10 10 11 12 13 14 13 12 10 10 9 10 11 11 10 10 9 9 9 10 9 9 10 10 10 9 9 8 8 8 8 10 11 12 13 14 15 15 15 14 13 14 13
nan nan nan nan 8 6 3 4 4 4 1 6 6 3 5 2 4 4 1 1 3 3 9 12 17 19 22 20 17 16 19 17 13 11 11 10 10 8 7 5 5 5 4 5 6 5 5 6 6 5 6 8 10 10 9 10 11 13 13 13 12 11 9 9 10 11 11 11 11 10 9 9 10 10 10 9 10 9 9 9 8 7 8 8 9 10 11 13 14 15 15 15 16 15 15 15 15
nan nan nan nan 5 7 2 3 3 5 3 5 6 4 6 4 2 1 2 3 3 11 11 16 18 18 20 18 17 17 17 17 15 12 10 9 9 8 8 7 6 5 5 5 5 5 5 6 5 5 7 8 9 9 10 11 13 13 13 11 9 10 10 10 10 9 10 11 10 10 9 10 10 10 9 10 10 10 11 10 9 9 9 11 11 11 12 14 15 15 15 16 17 16 16 17 16
nan nan nan nan 2 7 4 7 4 2 8 7 3 6 2 3 1 2 1 5 2 12 13 17 16 15 18 18 nan nan 17 16 14 12 10 9 11 10 9 8 6 4 4 4 5 5 6 6 5 6 7 8 8 10 11 13 14 13 12 11 10 11 10 10 8 9 9 9 11 11 10 11 11 11 10 10 11 12 13 13 11 10 10 11 11 11 12 13 14 15 15 16 16 17 17 17 18
nan nan nan 9 3 11 7 7 7 6 7 7 8 7 8 7 3 5 5 5 5 12 9 18 16 17 nan nan nan nan nan nan 12 10 6 5 6 7 6 5 5 5 5 6 5 6 7 5 6 7 8 9 9 10 12 14 14 13 11 10 10 11 9 8 8 9 8 9 10 11 12 12 13 12 11 12 12 13 14 14 14 12 12 12 12 13 12 12 13 15 16 15 16 17 18 18 18
nan nan nan nan 12 13 8 8 7 8 5 9 11 9 7 9 4 7 2 8 7 4 14 18 17 nan nan nan nan nan nan nan nan 10 8 4 5 7 6 6 5 7 7 7 7 7 7 6 7 8 10 10 10 11 13 13 14 12 10 10 10 9 9 8 7 8 8 7 9 11 14 14 14 13 13 13 13 14 14 15 15 15 15 14 13 14 15 13 13 15 16 16 16 17 17 19 19
nan nan nan nan 12 14 8 9 7 8 8 12 11 10 10 11 6 6 5 7 6 5 15 17 18 17 nan nan nan nan nan nan nan nan 6 3 4 6 5 5 6 6 6 7 8 8 7 7 7 8 10 10 10 12 12 13 13 12 9 9 9 9 9 8 7 7 6 8 9 10 12 13 12 12 13 14 14 15 16 16 17 17 17 16 15 16 16 15 15 15 16 16 16 17 18 19 20
nan nan nan nan nan 14 12 9 12 9 9 12 15 10 7 9 1 5 5 7 6 8 12 15 14 15 nan nan nan nan nan nan nan nan 10 6 3 3 4 4 5 5 6 7 7 8 7 8 8 9 10 11 10 12 12 13 13 11 9 8 9 8 9 8 8 8 7 8 9 9 10 12 12 13 13 14 15 16 16 17 17 18 19 16 15 16 16 16 16 16 16 16 17 17 19 20 21
nan nan nan nan nan 11 15 12 11 11 12 15 16 16 7 1 1 3 5 8 7 8 10 11 13 nan nan nan nan nan nan nan nan nan 9 5 3 3 4 5 5 5 6 6 7 8 9 9 8 9 10 10 10 11 12 12 12 10 8 9 10 8 9 9 9 9 7 7 9 10 12 14 14 13 15 16 17 18 17 17 18 19 19 18 17 16 16 16 17 16 16 16 17 19 20 21 21
nan nan nan nan nan 12 9 10 11 11 11 20 18 11 2 5 6 6 7 10 9 10 14 11 10 nan nan nan nan nan nan nan nan nan nan 5 4 4 4 6 5 3 4 6 6 8 8 8 8 8 9 10 10 10 11 11 11 10 9 10 9 8 10 10 10 10 9 9 11 12 13 15 14 15 16 18 17 18 18 19 19 19 19 19 18 17 17 17 17 16 16 17 18 19 20 20 20
nan nan nan nan nan nan 11 10 10 8 9 20 12 14 5 7 8 9 11 13 15 14 18 19 13 12 nan nan nan nan nan nan nan nan nan 8 4 3 5 5 5 3 3 4 7 7 8 8 7 9 9 10 10 10 11 11 11 9 9 10 9 9 10 10 10 11 11 11 13 14 14 15 15 16 17 17 17 18 19 19 20 20 20 19 18 18 18 19 17 17 17 18 20 20 20 20 20
nan nan nan nan nan nan 12 12 10 10 7 9 10 11 11 11 12 12 15 13 21 17 19 19 15 13 nan nan 9 13 15 14 10 nan nan nan nan 3 5 5 5 4 3 4 5 6 8 7 8 8 9 10 9 10 11 10 11 9 9 10 9 10 11 11 10 11 11 12 14 14 15 16 15 16 17 18 17 18 19 20 20 20 19 18 18 19 19 19 18 17 19 19 18 20 20 22 20
nan nan nan nan nan nan nan 8 8 11 13 6 6 7 10 5 10 16 19 20 18 18 18 19 18 17 15 9 9 11 14 13 11 nan nan nan nan nan 3 3 4 5 4 2 4 5 6 7 8 8 10 10 9 11 10 10 10 9 9 9 9 10 11 11 11 11 11 13 14 14 15 16 15 16 17 18 18 19 19 20 20 20 19 18 19 20 21 19 18 18 20 21 19 19 19 21 21
nan nan nan nan nan nan nan nan 10 13 17 7 1 10 4 5 13 18 23 22 19 18 19 19 18 15 15 12 10 10 13 13 12 8 nan nan nan nan nan 3 3 4 4 3 4 5 5 6 8 9 9 8 9 10 10 9 10 9 10 8 9 10 10 10 11 11 12 13 13 14 14 15 14 16 17 17 19 18 18 19 20 19 18 18 19 20 21 19 20 19 20 21 20 22 21 22 22
nan nan nan nan nan nan nan nan 10 15 15 15 4 7 3 5 11 19 21 21 20 18 18 19 20 19 17 13 11 11 12 13 14 10 nan nan nan nan nan 5 2 2 1 3 4 3 2 4 6 8 7 8 8 8 8 8 9 9 10 8 8 10 11 11 11 12 12 12 13 12 12 14 14 16 17 18 18 18 17 19 20 19 18 18 18 20 20 19 20 21 20 21 21 23 24 24 23
nan nan nan nan nan nan nan nan 10 14 11 11 8 5 4 8 11 15 20 21 19 17 17 17 18 18 18 16 12 10 10 13 12 12 nan nan nan nan nan nan nan 2 0 nan 2 2 2 2 5 7 7 7 8 7 8 8 9 9 9 9 9 10 11 11 12 12 12 11 11 11 12 12 13 14 16 17 17 16 16 17 18 18 17 17 17 18 19 20 20 20 21 21 23 23 24 26 22
nan nan nan nan nan nan nan nan 10 6 9 11 10 7 6 9 11 17 22 20 17 16 16 16 16 17 18 17 13 9 10 12 12 nan nan nan nan nan nan nan nan 4 2 nan nan 2 2 2 2 5 7 6 8 7 8 8 9 10 11 11 10 10 11 12 12 12 12 12 10 10 11 11 11 12 14 15 15 15 15 15 16 17 16 16 17 18 18 18 18 18 20 20 20 21 23 23 23
nan nan nan nan nan nan nan nan 12 8 8 3 8 11 9 11 11 20 21 21 19 18 16 16 17 16 17 18 14 10 nan nan nan nan nan nan nan nan nan nan nan nan nan nan nan 2 2 2 3 3 5 6 8 8 9 9 10 10 9 11 11 10 11 11 12 13 13 12 10 10 10 11 11 11 12 14 13 12 12 13 15 15 14 15 16 17 16 16 16 17 16 18 19 18 19 19 17
nan nan nan nan nan nan nan nan nan 9 3 5 12 14 12 13 17 21 24 23 19 17 17 18 18 16 15 17 15 13 12 nan nan nan nan nan nan nan nan nan nan nan nan nan nan 1 1 1 2 1 4 5 8 8 9 10 11 11 9 11 10 10 12 11 11 12 11 11 11 10 10 10 11 11 11 12 11 11 11 11 13 13 12 13 13 14 14 14 14 15 14 14 16 15 16 17 14
nan nan nan nan nan nan nan nan nan nan 8 6 12 15 12 13 14 19 21 23 19 17 18 16 13 15 16 18 17 16 13 12 nan nan nan nan nan nan nan nan nan nan nan nan nan nan 2 1 0 0 2 4 7 9 9 nan 11 nan nan nan 10 9 10 10 10 10 10 10 10 11 11 10 10 11 11 11 10 10 10 11 11 12 11 11 11 11 13 13 13 14 12 12 12 13 14 15 15
nan nan nan nan nan nan nan nan nan nan nan 15 18 21 19 14 11 10 14 16 17 17 18 13 9 11 15 16 18 18 16 12 11 nan nan nan nan nan nan nan nan nan nan nan nan nan 5 0 1 2 1 4 7 8 9 nan 10 10 nan nan nan nan nan nan 8 10 10 10 9 10 12 10 10 11 11 11 10 9 10 10 9 10 9 10 9 10 12 12 11 11 10 9 9 10 11 13 13
nan nan nan nan nan nan nan nan nan nan nan 24 25 27 17 10 8 15 17 14 16 19 21 16 12 13 16 16 17 17 15 12 10 nan nan nan nan nan nan nan nan nan nan nan nan nan 6 3 1 1 1 4 7 8 7 7 8 7 nan nan nan nan nan nan 8 9 9 9 10 10 10 10 10 11 11 11 10 10 9 9 9 9 9 9 9 10 11 10 10 11 10 8 8 9 9 9 11
nan nan nan nan nan nan nan nan nan nan nan 21 23 22 15 15 11 11 15 16 18 18 18 16 14 14 14 13 14 15 14 10 6 6 nan nan nan nan nan nan nan nan nan nan nan nan 9 5 2 2 0 3 7 7 6 6 7 7 nan nan nan nan nan nan 8 7 7 9 8 9 9 9 10 10 11 10 9 10 9 8 8 9 9 10 9 8 10 10 10 10 9 7 8 7 6 8 10
nan nan nan nan nan nan nan nan nan nan nan 27 26 27 26 20 13 12 13 15 16 15 14 15 13 13 13 11 12 12 10 7 6 8 9 9 nan nan 12 nan nan nan nan nan nan nan nan 8 4 3 1 2 6 6 6 5 4 6 nan nan nan nan nan nan nan 6 6 5 6 8 8 9 9 9 9 9 9 8 8 8 8 8 8 10 9 9 11 10 10 9 8 8 6 6 6 6 8
nan nan nan nan nan nan nan nan nan nan nan nan nan 31 nan 24 15 13 17 13 10 11 14 14 14 13 12 10 10 10 7 7 8 8 8 9 10 nan 10 10 nan nan nan nan nan nan nan 9 7 4 2 0 4 4 4 5 4 5 nan nan nan nan nan nan nan 5 5 5 5 6 6 7 7 8 8 7 8 7 6 7 7 8 8 8 9 10 11 10 9 9 9 7 6 8 8 7 5
nan nan nan nan nan nan nan nan nan nan nan nan nan nan nan nan 22 23 18 9 5 11 16 15 14 14 11 9 8 7 5 8 11 11 7 7 9 9 nan 9 nan nan nan nan nan nan nan 10 7 5 3 1 1 2 2 3 4 5 nan nan nan nan nan nan nan nan 5 5 5 5 6 6 6 7 7 6 6 6 6 5 6 7 8 8 9 10 9 9 9 9 9 7 5 7 7 6 6
nan nan nan nan nan nan nan nan nan nan nan nan nan nan nan nan nan 21 17 4 11 12 9 8 8 9 10 9 9 7 6 10 12 10 7 6 8 9 9 nan nan 10 9 nan nan nan nan 10 9 6 4 4 2 1 0 2 2 4 6 nan nan nan nan nan nan nan nan 6 5 6 5 6 5 6 5 6 5 4 4 5 5 6 7 8 8 7 8 9 10 9 8 5 4 6 7 6 6
nan nan nan nan nan nan nan nan nan nan nan nan nan nan nan nan nan nan 11 7 12 11 15 16 14 14 13 10 9 9 9 11 11 10 8 7 8 8 9 11 11 10 9 nan nan nan nan 10 10 7 5 4 3 1 0 1 1 2 nan nan nan nan nan nan nan 3 nan nan 5 5 5 4 5 5 4 4 5 4 4 5 5 5 6 7 7 7 8 9 9 8 6 5 5 5 4 4 5
nan nan nan nan nan nan nan nan nan nan nan nan nan nan nan nan nan nan 12 5 3 4 8 10 12 13 13 12 11 10 11 12 11 10 10 9 9 8 9 10 10 10 8 nan nan nan nan 8 9 9 5 4 4 3 1 1 1 1 3 nan nan nan nan nan nan nan nan nan nan 3 2 3 3 3 4 4 5 6 5 6 5 5 5 6 6 6 8 9 8 7 6 6 5 5 5 4 5
nan nan nan nan nan nan nan nan nan nan nan nan nan nan nan nan nan nan 15 5 5 7 0 3 3 7 8 8 9 9 10 10 11 12 12 10 9 8 8 8 9 9 9 6 5 6 nan nan 7 8 7 5 5 4 3 2 1 1 2 nan nan nan nan 4 nan nan 2 2 nan 1 2 3 3 5 5 6 7 6 6 7 6 5 5 6 7 7 7 8 7 6 6 7 7 6 4 4 5
nan nan nan nan nan nan nan nan nan nan nan nan nan nan nan nan nan nan nan 8 10 11 6 2 2 3 2 4 8 10 10 11 11 11 12 11 10 9 8 7 6 7 9 7 5 6 7 nan 6 6 8 6 5 4 4 3 3 2 3 nan nan nan nan 6 nan nan nan 4 4 2 1 2 3 4 5 6 5 6 7 6 6 6 7 7 7 8 7 7 7 7 7 9 8 6 6 5 6
nan nan nan nan nan nan nan nan nan nan nan nan nan nan nan nan nan nan nan nan 16 13 11 8 6 5 7 10 9 7 8 10 11 10 11 11 11 9 8 6 5 5 9 7 6 6 6 6 6 6 7 7 6 6 6 4 4 4 2 3 nan nan nan 6 6 nan nan nan 5 4 3 4 4 4 4 3 6 7 7 7 7 7 7 9 9 10 8 8 8 9 10 9 9 8 8 7 8
nan nan nan nan nan nan nan nan nan nan nan nan nan nan nan nan nan nan nan nan nan 16 15 15 14 13 13 10 8 6 7 8 7 8 9 10 10 10 10 9 5 5 7 8 7 6 7 6 6 6 7 9 7 6 7 7 6 5 3 2 nan nan nan nan 3 2 nan nan nan 5 5 5 5 4 4 4 6 7 8 7 8 9 9 11 12 13 11 11 9 9 10 10 11 10 9 10 10
nan nan nan nan nan nan nan nan nan nan nan nan nan nan nan nan nan nan nan nan nan 18 18 18 18 22 17 11 9 7 8 8 5 5 6 7 8 11 10 9 8 7 8 8 8 7 6 6 6 6 7 8 7 7 8 10 8 6 5 3 3 nan nan nan 3 2 2 nan nan nan 5 5 5 6 6 5 6 7 7 8 9 10 11 12 13 14 12 11 9 9 9 10 11 10 10 10 11
nan nan nan nan nan nan nan nan nan nan nan nan nan nan nan nan nan nan nan nan nan nan 18 18 23 24 19 16 14 10 10 11 8 4 5 6 7 9 9 9 9 7 8 9 8 8 6 5 6 7 7 7 9 10 9 11 11 11 9 5 3 4 5 nan nan 3 3 3 nan nan nan 4 5 4 4 3 4 6 6 7 8 10 11 13 13 13 11 10 9 9 10 10 9 8 9 11 12
nan nan nan nan nan nan nan nan nan nan nan nan nan nan nan nan nan nan nan nan nan nan nan 18 22 25 22 22 21 16 14 14 8 4 5 8 10 11 8 8 8 8 8 8 8 7 9 8 8 7 7 8 9 9 9 9 10 11 10 8 5 5 5 4 nan nan 3 2 1 2 nan nan 4 4 4 4 3 4 5 6 7 9 11 12 12 12 10 10 9 9 9 9 10 9 9 10 11
nan nan nan nan nan nan nan nan nan nan nan nan nan nan nan nan 24 nan nan nan nan nan nan nan 24 25 25 26 26 23 21 17 9 6 9 13 15 11 7 7 7 7 7 7 6 8 9 8 9 9 9 8 8 8 9 9 11 11 10 8 5 5 5 6 6 5 3 2 1 1 1 2 3 3 4 3 1 2 3 5 6 8 9 10 11 10 9 8 9 9 9 9 9 9 10 10 9
nan nan nan nan nan nan nan nan nan nan nan nan nan nan nan nan 36 39 41 nan nan nan nan nan 22 23 25 25 27 30 24 19 18 15 15 16 16 12 8 9 10 9 7 6 5 4 6 9 9 9 8 7 7 6 7 9 11 11 10 8 6 6 5 6 6 5 4 3 3 2 1 2 2 2 4 4 2 1 2 3 5 7 8 9 9 9 8 7 8 9 9 7 8 8 9 9 8
Wind_Direction
325 nan nan nan nan nan 245 208 nan 244 253 263 118 98 110 125 130 117 124 108 115 126 142 116 111 69 70 78 310 291 179 nan nan nan nan 47 349 330 357 328 322 347 47 79 86 83 77 71 26 1 356 351 351 351 352 357 39 83 99 111 116 104 102 110 119 122 120 121 122 133 144 163 189 239 257 274 327 345 338 328 327 333 331 329 325 318 316 313 313 313 318 324 325 314 300 294 306
nan nan nan nan nan nan 199 206 229 212 112 120 103 122 124 110 115 118 79 94 98 98 74 91 108 120 116 137 341 319 145 147 83 2 146 2 325 327 342 336 339 356 57 78 86 86 88 81 40 23 9 0 360 357 359 19 57 87 99 112 106 100 103 109 110 108 116 123 137 142 161 209 290 297 304 321 342 348 342 341 344 340 334 333 328 321 310 310 314 314 321 328 320 308 294 296 318
nan nan nan nan nan 174 197 215 nan 183 123 116 122 118 129 142 145 125 124 97 110 82 52 111 170 157 134 103 6 85 76 131 299 286 317 0 320 8 344 345 351 2 48 91 93 99 100 85 54 43 20 9 5 6 11 22 57 77 96 97 96 99 100 97 95 104 120 135 140 139 222 300 307 316 316 323 344 340 335 347 344 340 338 337 331 317 313 310 309 312 316 321 334 339 334 355 59
nan nan nan nan 218 189 229 246 258 227 142 119 131 143 126 117 119 118 122 143 122 72 79 113 148 158 136 76 10 280 340 57 68 321 339 24 16 349 346 347 355 18 76 100 107 113 112 71 57 44 29 15 13 18 20 21 39 66 85 90 90 91 93 90 96 109 106 111 88 291 322 331 323 321 326 336 343 335 334 337 335 337 335 333 329 323 317 311 311 318 322 338 20 48 48 59 80
56 77 94 93 167 214 249 300 288 218 140 133 137 125 125 118 135 120 131 130 130 96 125 162 146 139 77 8 38 46 25 55 26 258 313 68 328 338 350 345 1 22 83 103 112 110 102 58 57 38 23 17 20 26 26 25 35 58 77 85 81 83 83 93 81 88 88 44 343 331 351 335 332 335 335 335 336 334 334 335 333 328 324 324 323 322 314 316 323 334 327 6 50 65 78 80 78
95 97 80 52 199 246 268 312 93 114 122 137 132 126 133 125 149 126 136 127 120 138 130 61 54 49 61 95 63 27 331 352 39 281 312 39 333 331 347 349 15 48 94 113 110 112 101 63 46 32 29 21 21 29 33 33 39 52 68 67 66 69 73 66 86 54 25 12 341 327 351 349 341 340 338 338 337 336 334 333 330 324 320 319 324 323 320 316 325 347 5 33 63 70 75 79 79
67 81 60 57 324 280 275 161 122 114 115 114 130 126 122 114 124 80 106 131 123 122 123 94 328 357 223 348 279 330 225 312 20 336 341 7 327 323 345 4 38 64 100 109 115 111 91 53 32 32 31 31 28 31 35 36 42 48 61 71 78 52 39 32 43 51 11 343 337 337 348 348 343 342 343 339 339 337 335 333 326 318 313 312 316 320 315 309 328 353 3 32 67 68 71 79 82
106 101 85 nan 21 264 312 134 132 120 118 143 147 127 134 124 100 90 85 92 63 83 86 61 71 324 312 45 353 339 327 67 323 313 321 1 330 321 353 19 77 100 108 112 116 112 68 44 37 37 39 38 36 36 34 36 42 39 36 42 54 58 36 16 18 13 353 350 345 348 350 350 349 348 345 342 341 337 330 324 320 319 317 315 312 306 303 308 314 329 353 47 69 77 67 79 76
80 18 97 4 324 336 349 38 142 136 129 148 143 136 151 140 122 101 104 137 165 65 12 21 358 311 38 316 324 343 314 307 308 320 334 352 339 338 29 16 99 119 109 111 113 109 101 54 41 39 43 43 39 36 37 36 36 32 30 36 41 39 32 24 5 359 355 1 352 353 352 353 354 353 348 346 342 339 330 321 320 326 328 328 319 303 289 280 294 321 356 38 47 36 50 35 77
65 54 29 0 318 nan 34 80 154 134 131 137 136 137 142 134 140 145 115 140 75 12 349 345 43 314 346 313 325 351 339 316 318 330 348 357 351 351 342 325 90 98 117 114 109 109 106 39 31 36 44 42 41 37 33 36 38 37 34 31 30 27 29 18 12 1 4 5 1 356 355 357 356 355 352 348 341 339 336 331 333 336 340 336 329 316 296 283 298 346 7 25 35 26 342 187 190
75 30 352 336 342 nan 150 125 148 121 118 122 163 154 162 162 174 159 136 114 73 348 310 313 295 317 327 345 32 351 323 324 330 341 356 0 5 336 235 178 111 125 117 109 110 111 102 82 25 33 39 40 39 37 33 32 34 36 35 26 22 19 17 19 17 7 12 11 6 3 359 357 359 355 357 352 348 352 358 355 356 356 5 14 1 347 338 338 68 53 34 19 30 31 20 33 56
86 nan 341 331 351 nan 131 131 144 136 120 137 174 166 152 163 107 162 121 104 12 320 332 2 16 325 308 349 17 346 334 336 336 344 2 0 9 285 219 135 160 145 121 110 111 106 96 95 86 41 33 35 37 33 36 29 23 28 28 23 19 18 17 20 18 15 15 16 12 6 4 1 2 4 4 6 8 9 15 17 20 28 34 45 46 36 41 60 61 82 68 64 73 90 79 89 133
98 24 353 345 359 nan nan 129 139 143 139 157 160 161 175 176 161 150 112 143 17 332 5 37 322 331 332 357 13 345 344 345 342 347 354 25 284 216 163 148 157 151 120 119 107 100 101 103 95 83 62 29 38 34 31 29 22 25 23 20 25 23 24 23 21 18 16 18 15 9 8 6 9 12 18 20 20 20 26 31 35 40 49 54 56 61 61 72 85 59 86 102 93 85 81 92 134
155 37 354 32 46 88 113 133 138 178 155 120 146 164 177 168 167 130 131 200 65 4 325 324 324 311 306 321 6 10 355 350 350 338 3 332 238 201 204 144 142 137 118 112 113 105 98 99 95 96 90 94 101 69 37 27 25 26 24 24 26 31 31 26 24 20 23 20 19 19 16 11 13 18 22 25 25 29 33 37 38 47 56 56 59 61 64 71 87 106 119 114 113 92 96 118 125
144 184 344 23 67 84 109 142 153 204 106 102 130 166 190 195 130 132 203 225 134 345 321 310 323 315 19 347 14 23 1 358 346 331 334 279 286 269 243 133 140 130 120 106 104 96 91 93 95 100 95 99 95 102 102 70 27 28 31 28 32 36 32 33 25 25 25 25 22 25 24 20 21 20 20 26 30 32 39 43 41 47 55 60 65 69 72 76 88 95 97 101 100 102 113 118 119
223 214 239 201 nan 96 106 125 132 193 116 111 163 170 234 217 133 151 168 215 127 111 344 337 45 88 5 22 351 354 358 352 338 324 300 307 300 295 235 143 127 120 115 108 99 98 92 99 105 101 102 98 102 103 96 91 53 33 36 36 39 36 34 33 29 26 21 23 25 32 29 46 40 50 19 46 33 30 37 54 43 45 49 60 67 70 72 75 79 85 98 102 106 107 106 105 110
237 212 180 207 142 136 91 100 92 153 201 170 152 166 247 226 137 171 163 216 120 123 52 349 65 323 356 352 343 343 351 349 339 313 312 355 76 114 134 123 125 120 114 99 109 99 96 98 100 104 97 91 95 97 94 88 73 41 52 41 37 37 35 32 29 27 26 31 44 45 74 90 85 76 67 70 33 56 39 38 41 39 44 56 65 69 74 79 81 89 98 102 104 120 111 107 109
245 212 223 161 75 100 71 78 61 236 245 253 113 166 238 298 118 176 123 198 136 115 207 251 283 326 344 330 339 346 345 350 344 325 343 15 71 89 95 102 107 109 110 107 99 106 106 103 98 97 96 92 94 95 94 93 87 74 90 87 84 66 55 48 62 89 82 87 54 81 88 89 89 84 72 50 71 51 43 25 30 28 30 36 48 60 72 81 87 92 96 94 103 100 107 111 107
259 227 229 nan 69 82 43 142 287 272 271 251 213 193 176 200 187 135 121 109 82 108 195 303 320 303 321 335 345 350 345 352 351 346 342 352 22 22 71 89 92 106 110 112 112 98 106 105 96 89 92 94 91 95 95 97 99 100 96 92 87 75 77 86 96 98 97 85 83 78 84 84 86 81 75 61 67 34 39 24 22 24 22 22 33 49 67 82 90 99 104 110 115 120 112 105 103
254 237 215 nan 77 97 298 331 354 279 319 322 275 165 179 205 202 131 164 162 67 8 307 333 333 330 337 343 352 352 350 350 0 358 346 355 7 15 34 51 77 87 96 105 106 111 101 98 88 86 85 86 90 94 100 103 101 99 95 94 89 91 95 99 104 95 85 78 75 77 77 77 77 72 45 29 37 64 48 30 27 27 26 27 34 72 71 82 101 110 113 121 121 113 112 109 110
nan nan nan nan 280 231 77 356 327 355 329 309 241 178 181 80 220 180 209 229 110 125 112 357 347 339 337 345 354 355 349 351 358 5 352 358 15 31 31 40 59 84 107 118 116 97 85 83 86 89 82 84 91 92 97 96 95 93 90 90 93 94 100 107 101 91 85 84 83 82 73 75 74 75 80 80 80 71 80 84 87 84 82 77 63 82 93 95 102 108 114 118 119 117 118 115 115
nan nan nan nan 235 212 9 59 23 26 259 251 266 228 133 58 178 203 90 57 111 106 49 4 349 341 336 345 353 353 350 353 351 3 5 358 7 22 41 53 64 92 111 105 90 87 77 72 73 87 79 85 88 91 92 87 82 85 87 90 98 100 101 97 94 87 88 85 82 79 74 70 77 72 68 68 75 80 81 81 83 81 73 67 72 77 84 89 96 99 106 111 115 117 116 115 114
nan nan nan nan 253 239 281 7 81 334 5 311 319 236 200 125 148 198 150 5 150 142 46 352 352 344 341 342 348 349 352 355 350 357 5 356 360 18 33 48 52 61 82 95 97 92 79 74 71 65 75 86 87 96 95 87 84 86 90 97 97 92 90 86 83 95 103 101 90 82 66 63 64 66 64 67 71 79 79 77 79 85 76 70 75 76 80 88 90 93 102 106 110 116 116 114 114
nan nan nan nan 295 263 311 337 336 286 322 1 324 280 304 33 278 199 79 79 12 92 15 345 345 340 343 347 nan nan 346 354 353 353 5 359 357 8 25 40 51 69 81 71 81 79 72 62 67 60 74 83 91 90 89 86 87 87 93 95 87 80 83 85 89 87 92 100 101 92 78 65 64 64 70 69 72 80 81 83 84 82 83 79 78 68 76 85 92 101 101 105 112 116 116 117 116
nan nan nan 206 249 256 288 309 327 310 305 319 311 337 354 356 256 209 89 54 66 81 12 336 342 343 nan nan nan nan nan nan 351 351 6 20 3 360 29 68 49 52 48 54 63 66 61 60 56 64 75 78 83 81 85 88 88 92 95 90 82 76 77 80 85 88 81 91 100 94 82 72 73 69 71 75 79 82 86 87 86 83 85 85 80 82 80 83 97 103 106 108 111 113 115 117 114
nan nan nan nan 239 266 270 293 327 326 308 328 324 329 315 275 210 117 27 46 9 118 359 340 338 nan nan nan nan nan nan nan nan 354 353 17 5 353 26 49 44 44 43 41 50 60 67 60 49 63 72 76 77 78 87 88 90 92 88 80 74 75 71 75 90 100 94 83 90 90 84 74 67 65 72 79 76 80 81 84 86 87 86 87 86 86 89 85 93 102 108 112 114 113 114 111 111
nan nan nan nan 250 269 278 300 314 320 313 329 309 311 331 325 13 69 51 23 344 319 353 336 333 348 nan nan nan nan nan nan nan nan 333 12 20 8 21 46 42 52 45 44 53 58 68 59 60 70 74 79 81 79 84 87 93 91 85 79 73 74 72 74 88 108 109 95 90 89 82 78 75 74 72 76 82 78 79 81 86 88 90 91 92 93 95 95 103 105 108 112 113 111 109 109 109
nan nan nan nan nan 297 301 290 302 305 296 318 304 306 319 324 327 27 4 359 336 306 320 323 337 351 nan nan nan nan nan nan nan nan 340 348 52 39 19 47 45 54 47 48 64 67 58 53 59 66 70 76 75 77 81 85 92 92 87 83 77 79 78 84 88 97 105 106 103 91 82 82 87 85 83 82 80 81 82 85 86 87 90 95 95 97 103 108 113 116 113 113 110 109 111 110 109
nan nan nan nan nan 272 303 308 311 306 294 299 281 269 257 250 38 66 344 330 309 307 310 323 345 nan nan nan nan nan nan nan nan nan 349 350 20 35 15 25 31 51 82 52 58 63 51 54 61 62 70 75 73 73 76 84 94 93 85 86 90 95 91 94 91 95 110 114 103 93 89 93 94 90 89 84 84 85 86 88 89 88 90 95 100 102 106 112 117 120 118 115 114 113 112 112 108
nan nan nan nan nan 234 309 294 300 289 282 297 287 256 316 21 59 86 341 331 322 317 325 326 349 nan nan nan nan nan nan nan nan nan nan 337 15 15 9 20 17 50 93 93 69 64 73 80 79 76 71 68 74 75 78 85 94 93 88 92 100 100 97 95 93 99 105 109 104 97 96 94 98 95 89 88 91 89 93 95 92 91 94 98 105 107 108 109 113 115 115 118 112 113 112 110 110
nan nan nan nan nan nan 265 267 293 268 292 312 302 269 324 10 33 41 356 340 333 332 332 338 343 343 nan nan nan nan nan nan nan nan nan 335 355 16 2 20 6 6 127 84 59 69 74 82 82 80 72 68 72 68 68 76 90 92 93 96 106 98 96 89 90 96 100 102 102 100 97 95 96 94 93 91 91 93 94 93 92 89 91 96 101 104 106 109 108 110 112 114 115 115 112 112 108
nan nan nan nan nan nan 258 260 300 269 245 328 264 256 332 353 12 353 346 332 332 334 331 330 334 337 nan nan 335 334 335 339 351 nan nan nan nan 343 1 14 4 350 26 55 59 76 80 88 81 74 68 69 71 63 70 75 82 93 94 99 108 99 96 93 92 93 95 97 98 100 97 97 97 95 95 97 93 94 91 90 88 89 89 91 95 97 99 99 106 112 109 107 107 107 108 111 110
nan nan nan nan nan nan nan 279 291 291 291 308 325 262 276 327 354 334 334 335 331 325 327 328 330 335 337 336 335 331 333 334 343 nan nan nan nan nan 340 0 11 358 6 20 39 69 93 87 81 67 60 66 68 61 68 79 85 92 88 100 94 97 94 98 105 107 104 100 101 100 98 99 100 96 96 96 94 94 93 92 90 88 89 90 92 92 95 100 104 104 104 103 105 101 100 104 105
nan nan nan nan nan nan nan nan 294 275 292 281 359 237 315 297 340 331 329 333 324 324 323 324 325 325 328 328 334 331 335 333 339 339 nan nan nan nan nan 341 359 352 357 3 20 34 71 86 90 78 77 72 71 62 70 72 83 87 90 98 97 94 96 102 106 109 106 104 102 100 98 100 101 98 99 97 96 95 95 93 93 90 91 91 93 97 97 101 103 102 100 103 104 103 98 100 100
nan nan nan nan nan nan nan nan 289 293 299 296 284 217 255 301 327 333 329 322 320 319 318 323 323 321 319 324 334 334 335 338 340 332 nan nan nan nan nan 322 304 329 5 359 27 41 84 92 102 90 92 85 72 68 77 85 89 94 97 103 99 103 110 107 103 106 107 106 99 98 98 101 98 99 99 98 97 95 94 93 93 94 91 90 91 95 99 101 101 102 102 104 103 101 103 102 99
nan nan nan nan nan nan nan nan 271 310 298 293 300 248 287 324 323 334 333 324 321 316 305 315 318 316 314 319 331 333 330 341 335 335 nan nan nan nan nan nan nan 248 292 nan 32 56 28 71 110 105 110 96 94 86 94 104 103 98 98 113 117 105 106 106 104 102 107 103 98 95 95 96 96 95 96 97 99 97 91 91 92 94 93 94 93 95 98 95 96 100 104 105 109 110 102 99 102
nan nan nan nan nan nan nan nan 235 295 305 335 326 270 311 342 341 344 337 326 321 313 311 305 310 309 312 313 324 323 325 335 331 nan nan nan nan nan nan nan nan 275 265 nan nan 54 21 7 78 92 116 105 95 89 93 98 102 105 116 107 106 104 102 106 105 109 104 102 93 89 89 95 98 100 101 101 101 99 98 97 99 98 99 98 96 94 97 99 102 101 102 103 105 108 109 106 104
nan nan nan nan nan nan nan nan 244 274 289 298 287 302 331 344 340 339 333 331 333 325 321 312 312 307 308 312 316 313 nan nan nan nan nan nan nan nan nan nan nan nan nan nan nan 44 28 356 18 88 134 104 90 86 92 96 98 94 100 102 115 111 103 107 108 107 104 106 101 94 93 101 103 104 104 103 102 101 101 99 95 93 96 96 98 100 101 101 101 102 105 109 107 103 108 105 102
nan nan nan nan nan nan nan nan nan 289 270 297 317 321 329 326 325 329 337 341 335 327 327 321 316 308 304 310 309 303 289 nan nan nan nan nan nan nan nan nan nan nan nan nan nan 207 42 10 12 100 127 94 94 91 101 99 107 106 107 106 106 116 115 101 99 97 105 103 102 101 102 104 105 105 102 98 97 98 96 97 93 93 96 98 101 103 104 101 99 102 106 109 114 112 109 107 101
nan nan nan nan nan nan nan nan nan nan 236 225 329 315 288 290 304 328 338 336 330 330 326 317 312 314 310 315 307 300 299 300 nan nan nan nan nan nan nan nan nan nan nan nan nan nan 153 135 340 336 116 96 97 95 101 nan 105 nan nan nan 107 107 110 106 107 111 106 108 100 105 111 106 101 102 99 96 99 97 93 91 98 97 95 99 97 100 102 100 105 104 109 109 109 114 121 114 116
nan nan nan nan nan nan nan nan nan nan nan 280 253 236 241 256 287 311 326 324 320 329 325 310 295 298 295 294 302 304 310 304 306 nan nan nan nan nan nan nan nan nan nan nan nan nan 180 198 337 347 113 87 95 95 101 nan 128 127 nan nan nan nan nan nan 121 116 104 96 104 107 100 105 102 103 100 100 102 98 99 101 98 96 96 97 100 99 98 96 99 102 101 101 106 110 119 121 122
nan nan nan nan nan nan nan nan nan nan nan 252 272 229 231 245 299 319 310 318 329 328 327 325 304 288 280 290 305 307 309 305 306 nan nan nan nan nan nan nan nan nan nan nan nan nan 235 210 281 336 161 109 94 95 105 127 128 116 nan nan nan nan nan nan 86 82 95 94 90 96 106 102 100 104 100 99 102 103 98 96 99 96 97 93 89 91 99 106 104 102 98 97 104 110 117 129 120
nan nan nan nan nan nan nan nan nan nan nan 220 237 260 248 236 253 287 302 318 320 313 328 323 304 294 292 297 300 304 306 297 299 324 nan nan nan nan nan nan nan nan nan nan nan nan 262 252 276 321 339 116 108 109 110 129 141 127 nan nan nan nan nan nan 104 93 83 93 106 103 98 104 99 95 95 94 93 93 94 92 88 91 93 92 98 99 99 95 98 99 109 109 100 112 123 116 95
nan nan nan nan nan nan nan nan nan nan nan 220 227 236 239 242 234 251 276 294 302 311 328 324 311 311 311 301 303 305 306 294 301 333 346 347 nan nan 355 nan nan nan nan nan nan nan nan 265 270 299 258 107 116 124 120 120 127 122 nan nan nan nan nan nan nan 97 100 98 99 95 104 100 97 95 92 92 90 90 89 87 83 89 88 88 89 85 88 93 97 108 107 104 113 114 104 94 92
nan nan nan nan nan nan nan nan nan nan nan nan nan 227 nan 231 230 244 248 261 297 338 345 337 328 325 316 313 315 316 308 304 321 330 345 346 348 nan 346 345 nan nan nan nan nan nan nan 256 255 252 280 125 120 110 125 124 127 120 nan nan nan nan nan nan nan 134 118 111 101 112 109 102 99 99 92 90 93 91 88 82 82 83 84 84 84 84 90 91 88 93 96 101 96 95 92 98 108
nan nan nan nan nan nan nan nan nan nan nan nan nan nan nan nan 219 235 236 249 314 20 16 357 339 332 323 323 321 317 286 295 320 330 335 340 335 338 nan 343 nan nan nan nan nan nan nan 254 256 268 281 258 139 110 123 118 126 140 nan nan nan nan nan nan nan nan 127 129 105 109 114 109 104 102 99 96 89 86 78 76 70 69 72 74 79 80 88 89 88 86 79 71 73 78 87 84 88
nan nan nan nan nan nan nan nan nan nan nan nan nan nan nan nan nan 245 246 311 21 36 38 11 336 319 323 329 323 309 294 302 307 312 315 323 322 328 349 nan nan 304 284 nan nan nan nan 265 267 269 280 256 263 75 124 73 120 143 130 nan nan nan nan nan nan nan nan 138 111 105 110 101 103 92 95 92 76 72 64 60 55 54 64 68 69 76 78 75 74 72 74 68 50 57 65 86 99
nan nan nan nan nan nan nan nan nan nan nan nan nan nan nan nan nan nan 275 5 29 31 33 16 355 344 339 338 327 317 310 304 307 300 302 298 312 336 4 13 351 318 294 nan nan nan nan 270 271 272 244 252 266 299 271 87 143 126 nan nan nan nan nan nan nan 123 nan nan 93 94 107 117 103 98 99 86 69 50 34 39 43 40 50 63 65 63 66 67 68 66 66 56 50 56 62 70 85
nan nan nan nan nan nan nan nan nan nan nan nan nan nan nan nan nan nan 272 320 2 45 56 22 3 0 358 353 342 318 307 306 310 305 295 296 318 350 5 8 353 330 310 nan nan nan nan 263 279 281 269 250 260 281 305 297 211 122 116 nan nan nan nan nan nan nan nan nan nan 122 133 95 96 93 82 65 56 31 19 20 29 35 49 60 66 66 68 64 66 58 53 48 42 33 40 48 54
nan nan nan nan nan nan nan nan nan nan nan nan nan nan nan nan nan nan 261 292 300 297 153 149 338 353 6 1 324 299 287 293 306 304 296 300 315 335 347 1 357 336 323 315 294 268 nan nan 270 287 284 255 235 259 288 267 234 151 122 nan nan nan nan 177 nan nan 174 184 nan 76 48 43 41 43 41 49 43 27 22 22 18 32 53 65 70 67 71 69 64 53 48 46 43 42 38 50 65
nan nan nan nan nan nan nan nan nan nan nan nan nan nan nan nan nan nan nan 259 261 273 297 295 336 311 327 298 289 297 296 286 289 298 300 303 313 320 323 349 356 334 331 333 306 280 258 nan 259 280 271 255 237 242 253 289 254 216 165 nan nan nan nan 194 nan nan nan 225 227 279 354 2 24 37 34 44 44 31 29 25 23 29 53 68 76 82 80 79 68 63 59 57 51 48 45 50 75
nan nan nan nan nan nan nan nan nan nan nan nan nan nan nan nan nan nan nan nan 243 257 262 260 261 271 265 259 273 295 305 292 283 293 304 305 305 307 311 329 346 329 336 339 336 301 276 256 255 268 272 261 237 225 223 246 252 240 199 148 nan nan nan 198 206 nan nan nan 254 275 317 343 8 12 31 23 39 32 31 34 36 43 60 73 85 89 93 92 85 70 69 63 58 62 49 58 72
nan nan nan nan nan nan nan nan nan nan nan nan nan nan nan nan nan nan nan nan nan 248 250 247 251 266 282 298 304 302 303 300 293 297 297 305 294 301 312 324 332 334 337 347 346 326 308 275 258 257 259 256 253 236 228 225 228 232 225 161 nan nan nan nan 208 237 nan nan nan 272 301 340 339 340 0 18 23 37 40 41 48 59 72 85 94 99 98 95 91 75 65 63 62 63 52 57 69
nan nan nan nan nan nan nan nan nan nan nan nan nan nan nan nan nan nan nan nan nan 257 253 261 262 263 273 290 309 325 323 319 316 287 273 285 296 307 310 319 334 338 336 341 348 338 317 298 292 285 267 272 260 248 233 228 230 227 224 197 152 nan nan nan 192 221 255 nan nan nan 270 287 321 340 351 9 17 28 45 51 61 72 83 93 93 98 98 90 84 76 69 63 64 60 56 65 69
nan nan nan nan nan nan nan nan nan nan nan nan nan nan nan nan nan nan nan nan nan nan 259 261 264 266 274 280 294 314 323 297 270 250 268 281 293 296 302 321 330 328 318 329 341 337 323 314 314 309 301 283 270 247 235 227 231 221 216 212 179 158 160 nan nan 192 220 253 nan nan nan 300 308 318 333 354 20 36 49 66 73 80 87 89 94 92 92 88 81 72 69 66 69 61 55 59 69
nan nan nan nan nan nan nan nan nan nan nan nan nan nan nan nan nan nan nan nan nan nan nan 264 272 279 281 280 281 286 295 307 314 316 320 324 319 312 307 307 315 315 306 314 333 339 348 349 340 333 312 289 280 275 263 250 242 234 224 216 197 176 163 163 nan nan 208 231 283 306 nan nan 308 294 314 346 25 43 58 70 84 85 86 89 89 90 85 83 79 72 66 65 68 63 58 57 64
nan nan nan nan nan nan nan nan nan nan nan nan nan nan nan nan 176 nan nan nan nan nan nan nan 258 274 284 285 284 281 294 303 298 305 322 325 325 317 296 277 281 279 280 295 318 348 0 356 357 348 332 318 311 300 279 263 252 248 245 236 218 197 164 168 170 187 200 201 242 294 315 325 283 297 299 316 22 68 76 83 87 94 91 90 88 86 86 81 76 75 73 68 69 64 61 63 61
nan nan nan nan nan nan nan nan nan nan nan nan nan nan nan nan 193 190 189 nan nan nan nan nan 232 257 272 276 280 284 293 298 288 284 298 308 310 301 267 253 250 253 272 304 314 329 354 5 1 353 342 326 320 300 275 264 255 253 261 251 240 217 188 181 175 185 197 203 215 239 260 256 288 304 293 321 8 95 144 120 110 102 102 97 93 86 84 80 72 73 74 76 70 63 62 66 64